#datint,netname,site,siteID,timestamp,IntT,BattV,AirT2,AirT,AirT_Avg,AirT_Max,AirT_Min,RH_Avg,RH_Max,RH_Min,EA_Avg,Td_Avg,Td_Max,Td_Min,WindS_Smp,WindS_Avg,WindD_Avg,WindD_SD,WindS_Max,ETo,ETr,SoilT4,SoilT8,SoilVWC8,SolarW_Avg,wetstate_Avg,wetT_Avg,Precip_accum,Precip_WPG,Precip_TB
15min,AgWx,beryljct,423,01APR2018:01:00:00,51.9,12.95,53.5,54.1,52.9,54.3,51.2,34,37,32,0.456,25.2,25.8,24.6,6.796,6.5,210,2.7,8.0,0.00039,0.00053,51.2,50.2,23,0,0,50.9,13.22,0.00,0.00
15min,AgWx,beryljct,423,01APR2018:01:15:00,52.4,12.96,53.7,50.2,53.8,54.8,50.2,33,37,31,0.456,25.0,25.9,24.4,6.642,6.4,204,9.5,7.5,0.00040,0.00055,51.0,49.9,23,0,0,52.0,13.22,0.00,0.00
15min,AgWx,beryljct,423,01APR2018:01:30:00,51.6,12.95,48.3,49.1,48.3,50.4,46.8,39,42,37,0.450,24.7,25.3,24.5,6.489,6.6,183,5.8,7.4,0.00031,0.00042,50.8,50.1,23,0,0,47.5,13.22,0.00,0.00
15min,AgWx,beryljct,423,01APR2018:01:45:00,50.9,12.95,51.4,49.9,51.0,51.8,49.0,36,38,34,0.468,24.8,25.5,24.5,5.612,6.5,200,3.7,7.5,0.00036,0.00048,50.6,49.7,23,0,0,49.1,13.22,0.00,0.00
15min,AgWx,beryljct,423,01APR2018:02:00:00,51.0,12.95,53.3,54.2,52.5,54.2,49.8,34,39,31,0.449,24.9,25.8,24.5,8.7,6.8,212,4.4,8.8,0.00040,0.00054,50.5,49.8,23,0,0,50.4,13.22,0.00,0.00
15min,AgWx,beryljct,423,01APR2018:02:15:00,51.7,12.94,54.6,54.6,54.3,54.6,53.9,31,32,30,0.445,24.5,24.8,24.1,9.58,8.3,208,5.1,9.8,0.00053,0.00069,50.3,50.0,23,0,0,52.2,13.22,0.00,0.00
15min,AgWx,beryljct,423,01APR2018:02:30:00,52.4,12.93,55.1,54.6,54.9,55.1,54.6,30,31,30,0.445,24.4,24.5,24.2,7.695,8.4,214,3.8,9.8,0.00055,0.00071,50.1,50.0,23,0,0,52.8,13.22,0.00,0.00
15min,AgWx,beryljct,423,01APR2018:02:45:00,52.9,12.94,54.9,53.1,54.9,55.2,53.1,30,32,30,0.442,24.3,24.5,24.1,4.165,7.0,217,24,9.4,0.00048,0.00064,50.0,49.9,23,0,0,53.0,13.22,0.00,0.00
15min,AgWx,beryljct,423,01APR2018:03:00:00,51.8,12.92,46.6,47.5,46.9,52.3,45.4,40,42,33,0.440,23.8,24.2,23.5,4.911,3.4,51,18,5.8,0.00010,0.00016,49.8,49.7,23,0,0,45.7,13.22,0.00,0.00
15min,AgWx,beryljct,423,01APR2018:03:15:00,49.8,12.93,44.6,46.4,44.4,47.5,41.4,45,50,39,0.450,24.1,24.7,23.4,5.941,8.0,53,8.7,13.1,0.00030,0.00038,49.7,49.6,23,0,0,43.6,13.22,0.00,0.00
15min,AgWx,beryljct,423,01APR2018:03:30:00,48.2,12.92,44.8,42.4,44.9,48.1,42.4,45,49,40,0.449,24.6,25.1,24.1,1.403,3.6,298,97,8.3,0.00009,0.00015,49.5,49.6,23,0,0,43.7,13.22,0.00,0.00
15min,AgWx,beryljct,423,01APR2018:03:45:00,46.4,12.9,44.0,40.6,43.9,45.4,40.5,46,54,42,0.460,24.2,25.1,23.9,1.469,1.1,249,3.0,4.4,-0.00016,-0.00021,49.4,49.5,23,0,0,40.9,13.22,0.00,0.00
15min,AgWx,beryljct,423,01APR2018:04:00:00,44.9,12.91,42.8,42.5,42.3,45.0,40.5,49,53,42,0.440,24.2,25.0,23.6,3.968,2.3,222,13,6.2,-0.00004,-0.00003,49.2,49.5,23,0,0,39.9,13.22,0.00,0.00
15min,AgWx,beryljct,423,01APR2018:04:15:00,43.7,12.9,40.9,40.2,40.7,43.4,38.6,51,56,46,0.442,24.1,24.5,23.5,2.916,1.2,171,36,4.3,-0.00014,-0.00018,49.1,49.4,23,0,0,38.6,13.22,0.00,0.00
15min,AgWx,beryljct,423,01APR2018:04:30:00,42.6,12.9,40.2,39.4,39.9,43.4,36.9,53,59,46,0.430,24.1,24.8,23.2,4.275,2.4,162,21,4.8,-0.00004,-0.00002,48.9,49.4,23,0,0,38.1,13.22,0.00,0.00
15min,AgWx,beryljct,423,01APR2018:04:45:00,42.0,12.89,43.9,44.9,42.9,45.2,39.4,47,53,43,0.434,23.9,24.1,23.5,1.556,3.2,206,2.1,4.4,0.00004,0.00009,48.7,49.5,23,0,0,40.2,13.22,0.00,0.00
15min,AgWx,beryljct,423,01APR2018:05:00:00,42.0,12.89,44.1,45.2,43.7,45.4,42.3,45,48,42,0.438,24.0,24.3,23.6,4.165,2.5,202,6.5,4.3,-0.00002,0.00001,48.5,49.5,23,0,0,40.7,13.22,0.00,0.00
15min,AgWx,beryljct,423,01APR2018:05:15:00,41.8,12.87,39.5,35.5,40.1,45.3,35.5,53,62,43,0.437,24.1,24.9,23.3,1.951,2.3,47,69,5.8,-0.00004,-0.00003,48.3,49.2,23,0,0,39.5,13.22,0.00,0.00
15min,AgWx,beryljct,423,01APR2018:05:30:00,40.8,12.86,35.8,36.3,35.4,36.6,33.7,59,65,54,0.396,22.4,23.7,21.4,2.105,2.3,338,31,5.2,-0.00006,-0.00006,48.1,49.1,23,0,0,35.7,13.22,0.00,0.00
15min,AgWx,beryljct,423,01APR2018:05:45:00,39.7,12.86,35.9,33.5,35.7,37.0,33.5,57,67,53,0.432,22.1,23.6,21.2,2.784,2.1,30,59,4.9,-0.00007,-0.00007,47.9,49.1,23,0,0,35.5,13.22,0.00,0.00
15min,AgWx,beryljct,423,01APR2018:06:00:00,38.5,12.85,34.2,34.5,33.7,34.7,33.0,67,69,65,0.438,24.0,24.6,23.5,3.617,1.8,140,44,4.1,-0.00011,-0.00013,47.7,48.8,23,0,0,35.7,13.22,0.00,0.00
15min,AgWx,beryljct,423,01APR2018:06:15:00,38.0,12.85,38.1,37.7,37.3,39.2,34.2,58,65,52,0.446,23.7,24.3,23.2,2.959,3.0,219,9.1,4.0,-0.00001,0.00000,47.5,48.6,22,0,0,36.8,13.22,0.00,0.00
15min,AgWx,beryljct,423,01APR2018:06:30:00,38.0,12.85,37.0,36.3,36.7,38.4,34.6,58,62,55,0.426,23.4,24.5,22.9,4.143,3.6,190,8.9,5.6,0.00001,0.00004,47.3,48.9,23,0,0,36.3,13.22,0.00,0.00
15min,AgWx,beryljct,423,01APR2018:06:45:00,37.8,12.84,39.1,41.7,38.1,41.7,35.9,56,61,48,0.432,23.5,24.0,23.1,3.946,4.0,203,4.4,4.3,0.00032,0.00056,47.1,48.4,22,0,0,37.1,13.22,0.00,0.00
15min,AgWx,beryljct,423,01APR2018:07:00:00,38.1,12.83,38.1,33.0,38.6,43.3,33.0,55,68,45,0.426,23.6,24.0,23.3,3.749,4.2,180,32,5.9,0.00036,0.00062,46.9,48.9,23,0,0,38.5,13.22,0.00,0.00
15min,AgWx,beryljct,423,01APR2018:07:15:00,37.4,12.81,34.4,34.6,33.8,37.2,32.2,66,69,58,0.419,23.5,24.6,22.6,2.411,2.8,203,41,4.7,0.00017,0.00029,46.7,48.7,23,1,0,35.8,13.22,0.00,0.00
15min,AgWx,beryljct,423,01APR2018:07:30:00,36.9,12.83,36.1,33.5,35.7,39.6,33.2,59,66,51,0.405,22.7,23.3,22.0,2.762,4.1,49,30,8.3,0.00031,0.00052,46.5,48.4,23,5,0,36.0,13.22,0.00,0.00
15min,AgWx,beryljct,423,01APR2018:07:45:00,36.4,12.84,33.5,33.6,33.1,34.2,31.8,63,67,60,0.405,21.9,22.2,21.7,4.669,4.9,310,27,7.3,0.00036,0.00057,46.4,48.5,23,21,0,35.9,13.22,0.00,0.00
15min,AgWx,beryljct,423,01APR2018:08:00:00,36.0,12.87,34.8,34.5,34.2,34.9,33.5,60,63,58,0.397,21.9,22.3,21.5,3.332,3.5,307,11,4.7,0.00041,0.00059,46.2,48.4,23,44,0,36.0,13.22,0.00,0.00
15min,AgWx,beryljct,423,01APR2018:08:15:00,36.0,12.92,34.8,34.9,34.4,34.9,33.6,61,63,59,0.419,22.3,22.9,21.5,3.442,3.7,329,9.3,5.3,0.00053,0.00073,46.0,48.3,23,74,0,37.4,13.22,0.00,0.00
15min,AgWx,beryljct,423,01APR2018:08:30:00,36.5,12.95,36.7,37.5,36.0,37.5,34.9,61,62,59,0.469,23.8,25.5,22.9,1.907,2.7,314,24,4.7,0.00065,0.00083,45.8,48.3,23,118,0,41.7,13.22,0.00,0.00
15min,AgWx,beryljct,423,01APR2018:08:45:00,37.4,13.02,37.8,37.5,37.3,38.2,36.6,62,65,58,0.446,25.4,26.6,24.0,1.776,2.2,91,8.2,5.8,0.00078,0.00095,45.7,48.4,23,157,0,48.0,13.23,0.00,0.00
15min,AgWx,beryljct,423,01APR2018:09:00:00,38.7,13.23,38.7,39.4,38.2,39.6,37.4,60,63,57,0.468,25.5,26.2,24.4,3.223,3.0,108,19,4.4,0.00106,0.00128,45.5,48.1,23,221,0,52.9,13.23,0.00,0.00
15min,AgWx,beryljct,423,01APR2018:09:15:00,40.4,13.44,40.9,41.0,40.4,41.2,39.4,56,58,55,0.489,26.0,26.8,25.4,3.31,2.5,147,19,3.5,0.00117,0.00139,45.4,48.2,23,231,0,57.0,13.23,0.00,0.00
15min,AgWx,beryljct,423,01APR2018:09:30:00,42.4,13.86,43.6,45.1,43.0,45.3,40.9,55,58,50,0.512,27.7,29.0,26.3,4.932,4.1,157,10,5.8,0.00158,0.00194,45.4,48.1,23,309,0,60.0,13.23,0.00,0.00
15min,AgWx,beryljct,423,01APR2018:09:45:00,45.0,14.53,47.5,48.0,47.1,48.1,45.2,47,51,44,0.509,27.7,28.7,26.9,5.349,5.3,165,7.7,6.6,0.00192,0.00243,45.3,48.0,23,326,0,61.8,13.23,0.00,0.00
15min,AgWx,beryljct,423,01APR2018:10:00:00,47.8,14.43,49.5,50.7,49.1,50.9,48.0,43,46,40,0.523,27.5,29.1,26.4,4.297,5.7,168,8.0,7.5,0.00253,0.00316,45.3,48.0,23,450,0,67.8,13.23,0.00,0.00
15min,AgWx,beryljct,423,01APR2018:10:15:00,51.1,14.46,52.3,53.6,52.0,53.8,50.6,39,42,37,0.522,28.0,29.3,26.8,3.902,4.5,156,12,5.9,0.00291,0.00352,45.3,47.9,23,508,0,75.0,13.22,0.00,0.00
15min,AgWx,beryljct,423,01APR2018:10:30:00,54.5,14.35,55.2,56.1,54.9,56.4,53.1,34,38,29,0.446,27.3,29.2,24.4,3.617,3.9,155,12,6.0,0.00338,0.00404,45.4,47.8,23,576,0,82.2,13.22,0.00,0.00
15min,AgWx,beryljct,423,01APR2018:10:45:00,57.8,14.3,58.1,59.8,57.8,59.8,56.1,28,32,23,0.426,25.0,28.0,20.8,4.691,4.0,168,16,6.0,0.00403,0.00480,45.5,47.7,23,673,0,86.6,13.22,0.00,0.00
15min,AgWx,beryljct,423,01APR2018:11:00:00,60.5,14.25,59.7,59.7,59.6,60.3,59.1,23,26,20,0.386,21.4,25.3,18.9,4.187,4.2,155,21,6.9,0.00390,0.00474,45.8,47.6,23,600,0,85.8,13.22,0.00,0.00
15min,AgWx,beryljct,423,01APR2018:11:15:00,62.4,14.25,60.7,61.3,60.6,61.7,59.5,21,25,18,0.368,20.3,25.0,16.5,2.587,3.6,139,19,6.5,0.00438,0.00520,46.0,47.6,23,697,0,89.2,13.22,0.00,0.00
15min,AgWx,beryljct,423,01APR2018:11:30:00,64.2,14.22,61.9,62.5,61.8,62.7,61.0,19,22,16,0.411,18.9,22.4,15.4,2.938,4.5,127,15,7.1,0.00487,0.00587,46.4,47.5,23,761,0,90.2,13.22,0.00,0.00
15min,AgWx,beryljct,423,01APR2018:11:45:00,65.6,13.85,62.7,63.6,62.7,63.9,61.7,18,21,16,0.339,18.4,22.2,15.7,5.941,4.4,119,25,8.2,0.00503,0.00604,46.7,47.5,23,778,0,92.1,13.22,0.00,0.00
15min,AgWx,beryljct,423,01APR2018:12:00:00,66.8,13.85,63.3,63.7,63.3,64.1,62.6,16,19,14,0.310,16.4,20.0,12.6,5.744,4.7,141,20,8.7,0.00524,0.00633,47.1,47.4,23,801,0,92.0,13.22,0.00,0.00
15min,AgWx,beryljct,423,01APR2018:12:15:00,67.7,13.73,64.0,64.6,64.0,64.8,63.4,15,18,13,0.313,15.5,19.5,12.7,6.292,4.1,128,41,11.5,0.00557,0.00661,47.6,47.4,23,866,0,93.5,13.22,0.00,0.00
15min,AgWx,beryljct,423,01APR2018:12:30:00,68.7,13.71,65.0,65.5,65.0,66.6,63.7,15,17,13,0.302,16.3,20.3,13.2,2.653,4.7,119,34,9.2,0.00561,0.00676,48.1,47.4,23,851,0,92.9,13.22,0.00,0.00
15min,AgWx,beryljct,423,01APR2018:12:45:00,69.5,13.72,66.2,66.1,66.1,67.1,65.0,15,17,14,0.314,17.5,20.5,14.6,3.201,6.1,157,21,10.3,0.00593,0.00729,48.6,47.4,23,872,0,90.4,13.22,0.00,0.00
15min,AgWx,beryljct,423,01APR2018:13:00:00,70.3,13.7,66.9,68.3,66.9,68.8,64.9,15,17,13,0.342,17.5,21.7,14.6,2.543,6.3,159,41,11.6,0.00609,0.00752,49.2,47.4,23,889,0,91.9,13.22,0.00,0.00
15min,AgWx,beryljct,423,01APR2018:13:15:00,71.1,13.69,67.8,67.4,67.9,69.3,66.9,14,16,13,0.324,17.6,21.5,14.9,7.366,6.8,214,32,12.0,0.00636,0.00788,49.8,47.4,23,920,0,90.5,13.22,0.00,0.00
15min,AgWx,beryljct,423,01APR2018:13:30:00,71.5,13.67,66.8,66.8,66.8,67.5,66.0,14,15,13,0.309,15.8,18.6,14.4,5.086,3.6,292,52,9.1,0.00605,0.00708,50.4,47.5,23,929,0,93.7,13.22,0.00,0.00
15min,AgWx,beryljct,423,01APR2018:13:45:00,72.1,13.64,68.1,67.8,68.0,68.9,66.9,15,17,13,0.325,18.4,22.1,15.7,6.752,5.2,92,49,11.6,0.00620,0.00748,51.0,47.5,23,916,0,93.1,13.22,0.00,0.00
15min,AgWx,beryljct,423,01APR2018:14:00:00,72.6,13.63,69.4,70.6,69.3,71.5,67.5,13,16,12,0.325,16.9,21.0,14.3,9.36,6.3,197,27,17.8,0.00630,0.00778,51.5,47.6,23,898,0,92.9,13.22,0.00,0.00
15min,AgWx,beryljct,423,01APR2018:14:15:00,73.4,13.63,70.8,71.3,70.9,72.0,69.7,12,14,11,0.332,16.4,19.6,12.8,4.582,9.2,226,21,18.9,0.00693,0.00891,52.1,47.7,23,930,0,87.9,13.22,0.00,0.00
15min,AgWx,beryljct,423,01APR2018:14:30:00,74.1,13.7,71.4,71.8,71.4,72.4,70.3,13,15,11,0.351,17.2,21.1,12.9,14.71,10.5,253,31,18.7,0.00667,0.00879,52.7,47.8,23,857,0,85.9,13.22,0.00,0.00
15min,AgWx,beryljct,423,01APR2018:14:45:00,74.4,13.59,71.0,72.2,70.9,72.2,70.1,11,13,9.5,0.321,14.7,18.3,10.3,10.13,9.0,249,25,17.1,0.00682,0.00877,53.3,47.9,23,911,0,85.8,13.22,0.00,0.00
15min,AgWx,beryljct,423,01APR2018:15:00:00,75.0,13.58,71.9,71.3,72.0,73.4,70.8,11,13,9.6,0.261,14.5,19.2,10.6,11.29,10.6,247,19,18.4,0.00698,0.00919,53.8,47.9,23,892,0,84.7,13.22,0.00,0.00
15min,AgWx,beryljct,423,01APR2018:15:15:00,75.4,13.65,71.9,72.4,72.0,73.0,70.9,12,13,10,0.302,15.9,19.1,12.1,17.6,11.9,236,28,18.8,0.00689,0.00924,54.2,48.2,23,858,0,84.0,13.22,0.00,0.00
15min,AgWx,beryljct,423,01APR2018:15:30:00,75.7,13.61,71.7,71.3,71.9,72.8,71.1,12,14,11,0.319,17.2,20.2,15.1,11.03,12.0,212,14,17.5,0.00683,0.00919,54.6,48.2,23,848,0,83.9,13.22,0.00,0.00
15min,AgWx,beryljct,423,01APR2018:15:45:00,75.8,13.58,71.7,71.7,71.7,72.8,70.5,13,15,12,0.381,18.2,22.6,15.2,13.04,10.0,219,21,15.5,0.00636,0.00840,54.9,48.5,23,810,0,83.1,13.21,0.00,0.00
15min,AgWx,beryljct,423,01APR2018:16:00:00,75.9,13.54,71.7,72.6,71.8,72.7,70.9,14,16,13,0.396,20.6,23.0,18.4,15.54,9.9,222,16,17.2,0.00596,0.00794,55.0,48.7,23,746,0,82.1,13.21,0.00,0.00
15min,AgWx,beryljct,423,01APR2018:16:15:00,76.0,13.6,71.6,71.6,71.8,72.9,71.2,14,15,13,0.389,20.4,22.4,18.4,12.04,11.9,196,12,18.1,0.00597,0.00821,55.2,48.9,23,709,0,80.3,13.21,0.00,0.00
15min,AgWx,beryljct,423,01APR2018:16:30:00,75.8,13.66,71.8,71.8,71.9,72.8,71.3,15,16,13,0.406,21.1,22.9,19.0,19.49,15.6,210,9.3,20.9,0.00617,0.00882,55.3,49.0,23,675,0,78.1,13.21,0.00,0.00
15min,AgWx,beryljct,423,01APR2018:16:45:00,75.4,13.54,71.6,71.9,71.6,72.4,70.8,15,16,14,0.369,21.0,23.1,18.9,18.48,13.7,211,15,24.5,0.00566,0.00808,55.3,49.2,23,620,0,77.0,13.21,0.00,0.00
15min,AgWx,beryljct,423,01APR2018:17:00:00,75.2,13.57,71.5,71.1,71.6,72.3,70.6,14,16,13,0.370,20.6,22.8,18.5,11.14,13.0,206,17,19.6,0.00534,0.00767,55.5,49.2,23,581,0,76.0,13.21,0.00,0.00
15min,AgWx,beryljct,423,01APR2018:17:15:00,74.9,13.62,71.2,71.1,71.3,72.2,70.5,14,15,13,0.344,19.8,22.2,18.2,17.14,14.2,199,13,19.6,0.00536,0.00780,55.6,49.5,23,562,0,75.0,13.21,0.00,0.00
15min,AgWx,beryljct,423,01APR2018:17:30:00,74.6,13.61,70.7,70.9,70.8,71.3,70.1,14,15,13,0.368,19.5,20.9,17.0,16.18,14.0,207,14,19.3,0.00492,0.00730,55.8,49.7,23,490,0,73.4,13.21,0.00,0.00
15min,AgWx,beryljct,423,01APR2018:17:45:00,74.0,13.59,70.3,70.1,70.4,71.1,69.9,14,15,13,0.369,19.0,20.8,17.8,11.4,15.7,201,13,21.7,0.00490,0.00746,55.9,49.9,23,451,0,72.1,13.21,0.00,0.00
15min,AgWx,beryljct,423,01APR2018:18:00:00,73.4,13.59,69.8,69.5,69.8,70.5,69.3,15,16,14,0.370,20.1,21.4,18.5,17.01,17.0,199,9.0,22.6,0.00470,0.00731,56.1,50.0,23,401,0,71.0,13.21,0.00,0.00
15min,AgWx,beryljct,423,01APR2018:18:15:00,72.7,13.61,69.4,68.9,69.4,69.8,68.9,15,16,14,0.369,20.4,21.6,18.8,14.4,15.9,204,8.3,21.3,0.00424,0.00670,56.3,50.1,23,341,0,70.3,13.21,0.00,0.00
15min,AgWx,beryljct,423,01APR2018:18:30:00,71.8,13.64,68.4,68.1,68.4,68.9,67.9,16,17,15,0.388,20.7,21.8,19.4,15.92,16.1,203,8.7,22.1,0.00370,0.00609,56.4,50.3,23,249,0,68.9,13.21,0.00,0.00
15min,AgWx,beryljct,423,01APR2018:18:45:00,70.7,13.67,67.8,67.4,67.7,68.2,67.4,17,18,16,0.379,21.2,22.4,20.5,17.67,16.1,195,8.4,21.7,0.00346,0.00578,56.5,50.2,23,215,0,68.1,13.21,0.00,0.00
15min,AgWx,beryljct,423,01APR2018:19:00:00,69.8,13.44,67.3,66.9,67.3,67.7,66.8,17,17,16,0.374,20.7,21.4,19.8,13.42,15.9,190,6.9,20.3,0.00164,0.00195,56.5,50.4,23,184,0,67.5,13.21,0.00,0.00
15min,AgWx,beryljct,423,01APR2018:19:15:00,68.9,13.3,66.4,65.9,66.4,66.9,65.9,17,17,17,0.376,20.3,20.9,19.8,12.61,15.9,192,7.2,20.0,0.00154,0.00183,56.5,50.7,23,137,0,66.0,13.21,0.00,0.00
15min,AgWx,beryljct,423,01APR2018:19:30:00,67.8,13.21,65.5,65.0,65.5,66.0,65.0,17,18,17,0.382,20.1,20.7,19.6,10.94,15.0,193,6.9,18.9,0.00142,0.00170,56.5,50.8,23,101,0,64.6,13.21,0.00,0.00
15min,AgWx,beryljct,423,01APR2018:19:45:00,66.5,13.16,64.2,63.6,64.3,64.9,63.6,18,18,17,0.370,19.9,20.6,19.4,15.02,15.0,191,6.2,20.3,0.00129,0.00155,56.5,50.9,23,48,0,62.8,13.21,0.00,0.00
15min,AgWx,beryljct,423,01APR2018:20:00:00,65.1,13.13,62.9,62.3,63.0,63.6,62.3,19,20,18,0.377,20.0,20.6,19.5,13,13.3,193,6.0,18.2,0.00111,0.00136,56.4,50.8,23,11,0,61.1,13.21,0.00,0.00
15min,AgWx,beryljct,423,01APR2018:20:15:00,63.7,13.09,61.7,61.3,61.7,62.4,61.2,20,21,20,0.383,20.4,20.8,20.1,14.58,12.0,193,6.4,16.2,0.00099,0.00122,56.3,51.0,23,2,0,59.5,13.21,0.00,0.00
15min,AgWx,beryljct,423,01APR2018:20:30:00,62.6,13.09,61.5,61.4,61.4,61.7,61.0,20,21,20,0.377,20.5,20.9,20.1,10.24,12.9,197,7.2,17.4,0.00101,0.00124,56.2,51.1,23,0,0,59.2,13.21,0.00,0.00
15min,AgWx,beryljct,423,01APR2018:20:45:00,61.7,13.06,60.6,59.9,60.6,61.4,59.9,21,22,20,0.386,20.8,21.1,20.4,11.86,11.2,195,6.4,16.6,0.00090,0.00113,56.0,51.4,23,0,0,58.3,13.21,0.00,0.00
15min,AgWx,beryljct,423,01APR2018:21:00:00,60.8,13.06,60.1,60.2,59.9,60.3,59.6,22,22,22,0.389,21.0,21.2,20.8,11.03,11.5,195,7.4,15.7,0.00089,0.00111,55.8,51.2,23,0,0,57.6,13.21,0.00,0.00
15min,AgWx,beryljct,423,01APR2018:21:15:00,60.4,13.05,60.4,60.0,60.2,60.5,59.9,22,22,21,0.383,20.9,21.3,20.7,14.14,13.1,198,5.3,16.7,0.00097,0.00119,55.6,51.5,23,0,0,58.1,13.21,0.00,0.00
15min,AgWx,beryljct,423,01APR2018:21:30:00,60.1,13.05,59.8,59.0,59.7,60.2,59.0,22,23,21,0.391,20.8,21.2,20.4,11.62,12.0,198,6.8,15.8,0.00091,0.00112,55.4,50.9,22,0,0,57.5,13.21,0.00,0.00
15min,AgWx,beryljct,423,01APR2018:21:45:00,59.6,13.03,58.8,58.2,58.7,59.3,57.9,24,25,23,0.400,21.6,22.2,21.1,10.94,10.0,200,6.9,13.6,0.00078,0.00098,55.2,51.4,23,0,0,56.3,13.21,0.00,0.00
15min,AgWx,beryljct,423,01APR2018:22:00:00,58.9,13.03,58.5,58.1,58.3,58.7,57.6,24,25,24,0.405,21.9,22.4,21.6,10.7,9.5,203,7.0,12.9,0.00073,0.00093,55.0,51.5,22,0,0,55.8,13.21,0.00,0.00
15min,AgWx,beryljct,423,01APR2018:22:15:00,58.5,13.03,58.5,58.8,58.2,58.9,57.8,24,25,24,0.406,22.1,22.3,21.8,12.67,10.4,201,7.6,13.4,0.00077,0.00097,54.8,51.7,23,0,0,56.0,13.21,0.00,0.00
15min,AgWx,beryljct,423,01APR2018:22:30:00,58.1,13.02,57.9,56.9,58.0,58.9,56.9,25,26,24,0.410,22.3,22.5,22.1,7.103,8.9,196,5.6,13.6,0.00069,0.00089,54.6,50.9,22,0,0,55.6,13.22,0.00,0.00
15min,AgWx,beryljct,423,01APR2018:22:45:00,57.4,13.02,56.4,55.9,56.4,56.8,55.9,26,27,26,0.409,22.2,22.5,22.0,8.57,8.8,194,5.5,11.4,0.00064,0.00082,54.4,51.8,23,0,0,54.0,13.22,0.00,0.00
15min,AgWx,beryljct,423,01APR2018:23:00:00,56.6,13.01,55.5,53.7,55.5,55.9,53.7,27,29,27,0.412,22.1,22.5,21.7,7.804,8.9,184,7.9,12.2,0.00062,0.00080,54.2,51.8,23,0,0,53.5,13.22,0.00,0.00
15min,AgWx,beryljct,423,01APR2018:23:15:00,55.5,13.01,52.8,51.0,52.9,54.0,51.0,30,32,28,0.412,22.2,22.7,21.8,6.686,7.7,174,7.0,10.8,0.00049,0.00064,54.0,51.4,23,0,0,51.0,13.21,0.00,0.00
15min,AgWx,beryljct,423,01APR2018:23:30:00,54.2,12.99,53.1,54.3,52.6,54.3,50.6,28,33,25,0.363,20.5,22.5,19.4,8.31,8.0,184,9.4,10.5,0.00052,0.00067,53.8,51.8,23,0,0,50.5,13.21,0.00,0.00
15min,AgWx,beryljct,423,01APR2018:23:45:00,53.9,12.99,54.5,54.0,54.3,54.7,54.0,25,26,24,0.358,19.3,19.8,18.9,7.366,8.7,176,7.6,11.5,0.00061,0.00078,53.6,51.8,23,0,0,52.5,13.22,0.00,0.00
15min,AgWx,beryljct,423,02APR2018:00:00:00,53.5,12.97,54.0,54.6,53.7,54.6,53.1,26,27,25,0.366,19.4,19.8,19.0,9.34,7.1,180,7.7,11.2,0.00050,0.00067,53.4,50.9,22,0,0,51.5,13.22,0.00,0.00
15min,AgWx,beryljct,423,02APR2018:00:15:00,53.6,12.98,56.0,56.2,55.6,56.2,54.6,24,25,23,0.358,19.5,19.8,19.1,10.02,9.2,190,5.7,12.5,0.00067,0.00085,53.2,51.6,23,0,0,53.5,13.22,0.00,0.00
15min,AgWx,beryljct,423,02APR2018:00:30:00,54.2,12.98,56.5,56.3,56.2,56.8,56.0,23,24,22,0.354,19.0,19.4,18.3,10.28,9.8,192,6.5,13.3,0.00072,0.00091,53.0,51.6,23,0,0,54.2,13.22,0.00,0.00
15min,AgWx,beryljct,423,02APR2018:00:45:00,54.8,12.98,57.1,57.4,56.8,57.4,56.2,21,23,20,0.325,17.8,18.8,16.6,11.29,10.1,193,8.0,14.2,0.00076,0.00096,52.8,51.3,23,0,0,54.8,13.22,0.00,0.00
15min,AgWx,bigpiney,439,01APR2018:01:00:00,31.3,12.74,29.4,29.2,27.9,29.4,26.3,79,83,77,0.421,22.3,23.1,21.3,4.077,5.5,232,13,7.8,0.00001,0.00002,31.6,31.8,17,0,0,0.0,.,0.00,0.00
15min,AgWx,bigpiney,439,01APR2018:01:15:00,31.6,12.74,31.8,29.8,29.0,29.8,28.7,79,80,77,0.429,23.2,23.7,22.8,4.626,4.4,214,7.5,5.5,-0.00001,0.00000,31.6,31.9,17,0,0,0.0,.,0.00,0.00
15min,AgWx,bigpiney,439,01APR2018:01:30:00,31.9,12.74,31.5,31.2,29.8,31.7,28.5,75,78,71,0.425,22.8,23.7,22.0,4.012,2.4,213,20,4.7,-0.00005,-0.00005,31.6,31.9,17,0,0,0.0,.,0.00,0.00
15min,AgWx,bigpiney,439,01APR2018:01:45:00,32.0,12.73,31.1,29.4,29.1,31.2,27.8,75,78,72,0.419,22.2,23.2,20.7,3.617,3.3,264,51,5.1,-0.00002,-0.00001,31.6,31.9,17,0,0,0.0,.,0.00,0.00
15min,AgWx,bigpiney,439,01APR2018:02:00:00,31.9,12.72,31.3,31.2,31.1,31.9,29.4,73,76,72,0.435,23.6,24.4,22.2,2.389,2.7,21,6.6,4.1,-0.00004,-0.00004,31.6,31.9,17,0,0,0.0,.,0.00,0.00
15min,AgWx,bigpiney,439,01APR2018:02:15:00,32.0,12.71,30.1,29.7,30.2,31.2,29.5,76,79,74,0.437,23.6,23.9,23.0,2.477,3.2,32,18,5.1,-0.00003,-0.00002,31.6,31.9,17,0,0,0.0,.,0.00,0.00
15min,AgWx,bigpiney,439,01APR2018:02:30:00,32.1,12.7,29.4,28.7,29.3,29.8,28.6,80,84,78,0.446,23.9,24.4,23.6,4.691,3.6,27,23,5.1,-0.00003,-0.00003,31.6,32.0,17,0,0,0.0,.,0.00,0.00
15min,AgWx,bigpiney,439,01APR2018:02:45:00,32.4,12.69,30.3,29.8,29.6,29.9,28.8,85,87,84,0.486,25.7,26.4,24.5,6.84,4.6,11,19,7.1,-0.00003,-0.00003,31.6,31.9,17,0,0,0.0,.,0.00,0.00
15min,AgWx,bigpiney,439,01APR2018:03:00:00,32.8,12.68,29.9,29.7,29.7,29.9,29.7,89,90,87,0.498,26.8,27.0,26.4,3.201,3.5,353,11,6.4,-0.00006,-0.00007,31.7,31.9,17,0,0,0.0,.,0.00,0.00
15min,AgWx,bigpiney,439,01APR2018:03:15:00,33.1,12.68,29.2,28.8,29.2,29.7,28.8,92,93,90,0.497,27.1,27.2,26.9,1.841,2.4,337,7.5,4.2,-0.00009,-0.00011,31.7,31.9,17,0,0,0.0,.,0.00,0.00
15min,AgWx,bigpiney,439,01APR2018:03:30:00,33.3,12.66,29.0,28.6,28.7,28.9,28.6,93,94,93,0.498,27.0,27.1,26.9,1.118,1.8,338,7.2,2.3,-0.00010,-0.00013,31.7,31.9,17,0,0,0.0,.,0.00,0.00
15min,AgWx,bigpiney,439,01APR2018:03:45:00,33.3,12.66,28.7,28.4,28.5,28.7,28.4,94,94,94,0.494,27.0,27.1,26.8,3.025,1.8,278,14,3.1,-0.00011,-0.00014,31.7,31.9,17,0,0,0.0,.,0.00,0.00
15min,AgWx,bigpiney,439,01APR2018:04:00:00,33.1,12.64,27.9,27.6,28.1,28.4,27.6,94,94,93,0.475,26.4,26.8,25.8,2.762,2.9,228,19,4.0,-0.00008,-0.00010,31.7,31.9,17,0,0,0.0,.,0.00,0.00
15min,AgWx,bigpiney,439,01APR2018:04:15:00,33.0,12.64,27.9,27.7,27.7,27.8,27.6,94,94,93,0.478,26.1,26.3,25.9,2.105,2.4,210,5.1,3.5,-0.00009,-0.00011,31.7,31.9,17,0,0,0.0,.,0.00,0.00
15min,AgWx,bigpiney,439,01APR2018:04:30:00,32.8,12.63,27.1,26.7,27.2,27.7,26.7,94,94,93,0.462,25.6,26.1,25.2,3.003,2.2,221,10,3.2,-0.00009,-0.00012,31.7,31.9,17,0,0,0.0,.,0.00,0.00
15min,AgWx,bigpiney,439,01APR2018:04:45:00,32.4,12.62,27.3,26.7,26.6,26.9,26.2,94,94,94,0.463,25.1,25.5,24.7,2.17,3.1,240,9.9,4.7,-0.00008,-0.00009,31.7,31.9,17,0,0,0.0,.,0.00,0.00
15min,AgWx,bigpiney,439,01APR2018:05:00:00,32.0,12.61,27.1,26.8,26.7,26.9,26.6,94,94,94,0.462,25.2,25.6,25.0,0.088,2.4,240,21,3.2,-0.00009,-0.00011,31.6,31.9,17,0,0,0.0,.,0.00,0.00
15min,AgWx,bigpiney,439,01APR2018:05:15:00,31.7,12.6,26.5,26.1,26.8,27.2,26.1,94,94,93,0.451,25.3,25.8,24.4,1.008,2.3,198,9.9,5.0,-0.00009,-0.00011,31.7,31.9,17,0,0,0.0,.,0.00,0.00
15min,AgWx,bigpiney,439,01APR2018:05:30:00,31.6,12.59,27.5,27.1,26.5,27.1,26.1,94,94,94,0.471,25.1,25.7,24.6,0.526,1.2,243,13,1.7,-0.00012,-0.00016,31.6,31.9,17,0,0,0.0,.,0.00,0.00
15min,AgWx,bigpiney,439,01APR2018:05:45:00,31.6,12.58,27.9,27.4,27.3,27.4,27.0,94,94,94,0.475,25.8,25.9,25.6,2.214,1.0,232,29,2.7,-0.00013,-0.00018,31.6,31.9,17,0,0,0.0,.,0.00,0.00
15min,AgWx,bigpiney,439,01APR2018:06:00:00,31.8,12.56,28.8,28.3,27.9,28.4,27.4,94,94,94,0.495,26.4,26.9,25.9,3.508,2.3,279,47,3.7,-0.00009,-0.00012,31.6,31.9,17,0,0,0.0,.,0.00,0.00
15min,AgWx,bigpiney,439,01APR2018:06:15:00,32.0,12.55,28.2,27.9,28.2,28.4,27.9,94,94,94,0.485,26.6,26.9,26.3,1.776,2.1,335,18,3.9,-0.00010,-0.00012,31.7,31.9,17,0,0,0.0,.,0.00,0.00
15min,AgWx,bigpiney,439,01APR2018:06:30:00,32.1,12.54,27.7,27.2,27.6,28.0,27.2,94,95,94,0.474,26.2,26.5,25.7,2.85,2.6,327,16,3.9,-0.00009,-0.00011,31.7,31.9,17,0,0,0.0,.,0.00,0.00
15min,AgWx,bigpiney,439,01APR2018:06:45:00,32.0,12.53,28.3,27.8,27.6,27.9,27.1,94,95,91,0.469,26.0,26.3,25.6,8.35,3.6,347,17,8.8,-0.00007,-0.00008,31.7,31.9,17,0,0,0.0,.,0.00,0.00
15min,AgWx,bigpiney,439,01APR2018:07:00:00,32.0,12.53,27.8,27.4,27.7,27.9,27.4,90,91,89,0.454,25.1,25.6,24.8,5.809,5.3,1.7,17,7.3,-0.00003,-0.00003,31.7,31.9,17,1,0,0.0,.,0.00,0.00
15min,AgWx,bigpiney,439,01APR2018:07:15:00,31.9,12.52,27.8,27.4,27.4,27.5,27.4,90,90,90,0.454,24.8,25.0,24.7,0.548,3.2,357,43,6.4,-0.00006,-0.00006,31.6,31.9,17,6,0,0.0,.,0.00,0.00
15min,AgWx,bigpiney,439,01APR2018:07:30:00,31.9,12.53,27.9,27.5,27.4,27.5,27.4,89,90,89,0.451,24.6,24.8,24.5,0.943,0.7,230,32,2.1,-0.00018,-0.00019,31.6,31.8,17,19,0,0.0,.,0.00,0.00
15min,AgWx,bigpiney,439,01APR2018:07:45:00,32.1,12.61,28.7,28.1,27.6,28.1,27.4,88,89,88,0.457,24.7,25.0,24.5,4.034,3.2,292,27,6.2,0.00004,0.00008,31.7,31.9,17,96,0,0.0,.,0.00,0.00
15min,AgWx,bigpiney,439,01APR2018:08:00:00,32.4,12.59,28.7,28.4,28.3,28.5,28.1,87,88,86,0.453,24.8,25.1,24.6,7.936,7.4,345,10,10.4,0.00029,0.00038,31.6,31.9,17,153,0,0.0,.,0.00,0.00
15min,AgWx,bigpiney,439,01APR2018:08:15:00,32.8,12.62,28.7,28.4,28.2,28.4,28.1,87,87,86,0.456,24.7,25.0,24.5,7.147,7.2,341,8.8,9.5,0.00025,0.00034,31.7,31.9,17,93,0,0.0,.,0.00,0.00
15min,AgWx,bigpiney,439,01APR2018:08:30:00,33.0,12.7,29.3,28.9,28.8,29.1,28.3,86,87,84,0.454,25.0,25.4,24.6,5.634,6.5,349,11,8.7,0.00038,0.00048,31.7,31.9,17,145,0,0.0,.,0.00,0.00